Location: Allentsteig
(48.6833°N, 15.3167°E)
Time: 01:12:39
(UTC+00:00)

Cosmos 2278 Rocket - Visible Passes

Search period start: 24 January 2021 00:00
Search period end: 03 February 2021 00:00
Orbit: 839 x 847 km, 71.0° (Epoch: 23 January)

Date Brightness Start Highest point End Pass type
(mag) Time Alt. Az. Time Alt. Az. Time Alt. Az.
24 Jan 4.2 02:34:14 24° E 02:34:14 24° E 02:37:02 10° ESE visible
24 Jan 2.2 04:16:08 53° WSW 04:16:21 53° WSW 04:21:50 10° S visible
24 Jan 3.0 17:23:11 10° SSE 17:27:52 28° ESE 17:28:30 27° E visible
24 Jan 3.0 19:06:03 10° SW 19:10:25 46° W 19:10:25 46° W visible
25 Jan 4.6 02:20:58 17° E 02:20:58 17° E 02:22:24 10° ESE visible
25 Jan 2.5 04:02:53 48° SSW 04:02:53 48° SSW 04:07:18 10° S visible
25 Jan 3.1 17:08:42 10° SSE 17:13:20 27° ESE 17:15:21 21° ENE visible
25 Jan 2.6 18:51:27 10° SW 18:57:02 58° WNW 18:57:16 57° NW visible
25 Jan 5.1 20:39:05 10° WNW 20:39:11 10° WNW 20:39:11 10° WNW visible
26 Jan 3.3 03:49:44 32° S 03:49:44 32° S 03:52:46 10° S visible
26 Jan 3.2 16:54:14 10° SSE 16:58:47 25° ESE 17:02:07 15° ENE visible
26 Jan 2.6 18:36:52 10° SW 18:42:28 60° WNW 18:44:02 44° N visible
26 Jan 4.9 20:24:23 10° WNW 20:25:56 14° WNW 20:25:56 14° WNW visible
27 Jan 4.0 03:36:40 19° S 03:36:40 19° S 03:38:14 10° S visible
27 Jan 3.3 16:39:46 10° SSE 16:44:15 25° ESE 16:48:45 10° NE visible
27 Jan 2.6 18:22:17 10° SW 18:27:54 62° WNW 18:30:40 30° NNE visible
27 Jan 4.7 20:09:41 10° WNW 20:12:34 16° NW 20:12:34 16° NW visible
28 Jan 4.6 03:23:41 10° SSE 03:23:41 10° SSE 03:23:42 10° SSE visible
28 Jan 3.3 16:25:19 10° SSE 16:29:42 24° ESE 16:34:07 10° NE visible
28 Jan 2.5 18:07:41 10° SW 18:13:18 64° WNW 18:17:11 21° NNE visible
28 Jan 4.6 19:54:59 10° WNW 19:58:35 17° NW 19:59:05 17° NNW visible
29 Jan 2.5 17:53:05 10° SW 17:58:44 67° WNW 18:03:36 14° NNE visible
29 Jan 4.5 19:40:17 10° WNW 19:43:58 17° NW 19:45:29 16° NNW visible
30 Jan 2.5 17:38:30 10° SW 17:44:10 69° WNW 17:49:52 10° NNE visible
30 Jan 4.5 19:25:36 10° WNW 19:29:21 18° NW 19:31:47 14° N visible
31 Jan 2.4 17:23:55 10° SW 17:29:35 72° WNW 17:35:18 10° NNE visible
31 Jan 4.5 19:10:54 10° W 19:14:45 18° NW 19:18:00 12° N visible
01 Feb 2.4 17:09:20 10° SW 17:15:01 74° WNW 17:20:44 10° NNE visible
01 Feb 4.5 18:56:13 10° W 19:00:08 19° NW 19:04:03 10° N visible
02 Feb 2.4 16:54:45 10° SSW 17:00:26 77° WNW 17:06:10 10° NNE visible
02 Feb 4.5 18:41:32 10° W 18:45:31 19° NW 18:49:31 10° N visible
